COSMOS 1275 DEB, 17623

Orbit data source: Space-Track

COSMOS 1275 DEB, 17623 is space debris in LEO originally from a launch on Thu, 04 Jun 1981 UTC launched from the Plesetsk Missile And Space Complex (PKMTR). Debris objects in space refer to the collection of defunct objects orbiting the Earth. Examples of debris include non-operational satellites, rocket bodies, and fragments generated from explosions, collisions, or faulty payload assembly.

Loading next visibility...
Identifier
17623, 1981-053KS
Orbit
LEO
Country
Flag of CISCIS
Related business
Manufacturer
Unknown
Mission
Spacecraft
Bus & Motor
Unknown
Mass
Unknown
Launch date (UTC)
1981-06-04 (45 years ago)
Launch vehicle
Unknown
Launch site
Plesetsk Missile And Space Complex (PKMTR)
Object type
Payload
Rocket body
Debris
Shape & HBR
Unknown shape, 0.1 m
Radar Cross Section
Small (<0.1 m²)

Expand to show TLE details & history
Last TLE update: 1 day ago

TLE from 1 day ago
0 COSMOS 1275 DEB
1 17623U 81053KS  26106.50278127  .00000998  00000-0  68283-3 0  9999
2 17623  82.8002 276.3656 0054050 336.4953  79.1257 13.98125758 70820
Epoch: 2026-04-16T12:04Z
TLE epoch observation values (Epoch: 2026-04-16T12:04:00.301Z)
Latitude
55.65845°
Longitude
-98.68638°
Altitude
902.33 km
Speed
7.41 km/s
True Right ascension
19h 07m 51s
True Declination
55° 30' 05"
Sunlit
Object was in daylight at epoch
Visualization orbit readout
Latitude
Unknown
Longitude
Unknown
Altitude
Unknown
Speed
Unknown
Apparent Right ascension
Unknown
Apparent Declination
Unknown
Sunlit
N/A
Visualization observer readout
Local Sidereal Time
01:20:53
Azimuth
Unknown
Elevation
Unknown
Doppler factor
Unknown
Orbital elements
Apogee altitude
936.739 km
Perigee altitude
858.09 km
Semi-major axis
7,275.552 km
Eccentricity
0.00541
Inclination
82.8002°
RAAN
276.3656°
Arg. of periapsis
336.4953°
True anomaly
79.73471°
Mean anomaly
79.1257°
Eccentric anomaly
79.43013°
Mean motion
3.49739 °/min
Orbital period
102.93 mins
BSTAR
0.00068283
Loading maneuver chart data...
Computing Atmospheric mass density...
Loading historical data...
Loading historical data...
Loading historical data...
Loading historical data...
Loading historical data...
Loading historical data...
Loading historical data...

Documentation

Showing up to 5 results
|